Regional Weather Roundup
Issued by NWS Jackson, KY

Home | Current Version | Previous Version | Graphics & Text | Print | Product List | Glossary On
Versions: 1 2 3 4 5 6 7 8 9 10 11 12 13 14 15 16 17 18 19 20 21 22 23 24 25 26 27 28 29 30 31 32 33 34 35 36 37 38 39 40 41 42 43 44 45 46 47 48 49 50
000
ASUS43 KJKL 301419
RWRJKL

EAST KENTUCKY HOURLY WEATHER ROUNDUP
NATIONAL WEATHER SERVICE JACKSON KY
1000 AM EDT WED JUL 30 2014

NOTE: "FAIR" INDICATES FEW OR NO CLOUDS BELOW 12,000 FEET WITH
NO SIGNIFICANT WEATHER AND/OR OBSTRUCTIONS TO VISIBILITY.

* THESE REPORTS ARE NOT UNDER NWS QUALITY CONTROL AND MAY NOT
  REPORT WEATHER SUCH AS PRECIPITATION AND FOG.

KYZ079-080-083-085-087-088-110-112-115-119-120-301500
...EASTERN KENTUCKY...

CITY           SKY/WX    TMP DP  RH WIND       PRES   REMARKS
JACKSON        SUNNY     62  56  80 VRB3      30.13F
LONDON         SUNNY     64  55  72 S5        30.15R
SOMERSET*      SUNNY     63  61  94 CALM      30.15S
MONTICELLO*    SUNNY     68  61  77 CALM      30.15S
MIDDLESBORO*   CLOUDY    57  54  90 CALM      30.16S
HARLAN APT*    CLOUDY    55  54  94 MISG      30.16S
HAZARD APT*    SUNNY     63  63 100 SW3       30.14S
PIKEVILLE APT* MOSUNNY   59  57  94 CALM      30.14S
BIG SANDY*     SUNNY     62  58  85 S3        30.13F
MOREHEAD APT*    N/A     68  57  68 SW9       30.13S
ASHLAND*       SUNNY     66  55  68 CALM      30.08F
$$

KYZ035-036-041-042-044-050-067-078-099-301500
...CENTRAL KENTUCKY...

CITY           SKY/WX    TMP DP  RH WIND       PRES   REMARKS
MT STERLING*   MOSUNNY   64  57  77 W3        30.13R
FLEMING/MASON* SUNNY     68  59  73 W7        30.11F
DANVILLE*      SUNNY     70  59  68 W6        30.13F
RICHMOND*      SUNNY     66  55  68 SW8       30.12R
LEXINGTON      MOSUNNY   68  58  70 SW6       30.12R
FRANKFORT      MOSUNNY   68  59  73 W5        30.10S
$$

KYZ091>093-OHZ055-061-077-WVZ005-015-034-035-042-301500
...SOUTHERN OHIO/WEST VIRGINIA...

CITY           SKY/WX    TMP DP  RH WIND       PRES   REMARKS
COVINGTON      MOSUNNY   69  60  73 W7        30.08S
COLUMBUS       MOSUNNY   66  57  72 S7        30.06R
DAYTON         MOSUNNY   68  59  73 SW6       30.06F
WILMINGTON     MOSUNNY   68  59  73 W8        30.07S
HUNTINGTON     SUNNY     62  57  83 SW5       30.10F
CHARLESTON     MOSUNNY   66  59  78 SW3       30.11S
PINEVILLE*     CLOUDY    61  59  96 MISG      30.20S
BECKLEY        MOSUNNY   62  54  74 VRB6      30.16S
BLUEFIELD      SUNNY     62  53  72 VRB6      30.18R
$$

VAZ002-007-008-TNZ017-027-036-066-071-301500
...SOUTHWEST VIRGINIA/EAST TENNESSEE...

CITY           SKY/WX    TMP DP  RH WIND       PRES   REMARKS
WISE*          PTSUNNY   63  55  77 CALM      30.18S
JONESVILLE*    SUNNY     61  55  82 CALM      30.17F
ABINGDON*      SUNNY     63  55  74 CALM      30.17S
BRISTOL        SUNNY     63  54  72 CALM      30.16R
KNOXVILLE      MOSUNNY   66  57  72 NE6       30.11F
OAK RIDGE      SUNNY     66  57  72 E3        30.14S
CROSSVILLE     SUNNY     67  54  63 CALM      30.16R
NASHVILLE      PTSUNNY   69  60  73 CALM      30.13S
$$

...KEY TO REMARKS...
VSB - VISIBILITY IN MILES
WCI - WIND CHILL INDEX
HX  - HEAT INDEX

$$


USA.gov is the U.S. government's official web portal to all federal, state and local government web resources and services.